[[{"header":{"parameterUnit":"m.s-1","parameterCategory":2,"la1":30.2991,"la2":30.254,"lo1":-89.0895,"lo2":-89.0444,"dx":0.0017,"dy":0.0017,"nx":28,"ny":28,"refTime":"2023-01-21T15:00:00:Z","depth":"0","parameterNumber":2,"parameterNumberName":"U-component_of_CURRENTS"},"data":[0,0,0,0,0,0,0,0,0,0,0,0,0,0,0,0,0,0,0,0,0,0,0,0,0,0,0,0,0,0,0,0,0,0,0,0,0,0,0,0,0,0,0,0,0,0,0,0,0,0,0,0,0,0,0,0,0,0,0.3903,0.3903,0,0.3906,0.3906,0.3906,0.3921,0.3922,0.3922,0.3923,0.3946,0.3946,0.3946,0,0,0,0,0,0,0,0,0,0,0,0,0,0.3945,0.3944,0.3903,0.3903,0.3903,0.3906,0.3906,0.3906,0.3921,0.3922,0.3923,0.3923,0.3946,0.3946,0.3946,0,0,0,0,0,0,0,0,0,0,0,0,0,0.3934,0.3943,0.3903,0.3913,0.3914,0.3906,0.3906,0.3906,0.3921,0.3922,0.3923,0.3923,0.3946,0.3946,0.3946,0.3932,0,0,0.3947,0.3947,0,0,0,0,0,0,0,0,0.3934,0.3932,0.3911,0.3912,0.3913,0.3916,0.393,0.3916,0.3921,0.3917,0.3923,0.3924,0.3938,0.3939,0.3935,0.3933,0.3934,0.3947,0.3947,0.3947,0.3947,0,0,0,0,0,0,0,0.3935,0.3932,0.3903,0.3911,0.3912,0.3929,0.3928,0.3927,0.3922,0.3917,0.3919,0.3921,0.3939,0.3935,0.3936,0.3935,0.3947,0.3947,0.3947,0.3947,0.399,0.3991,0,0,0,0,0,0,0.3935,0.3932,0.3903,0.3903,0.3928,0.3927,0.3926,0.3913,0.3922,0.3924,0.3921,0.3922,0.3934,0.3936,0.3937,0.3987,0.3947,0.3947,0.3947,0.3989,0.399,0.3991,0,0,0,0,0,0,0.3935,0.3931,0.3903,0.392,0.3918,0.3926,0.3911,0.3912,0.3917,0.3925,0.3927,0.3925,0.3935,0.3937,0.3949,0.3986,0.3947,0.3947,0.3988,0.3989,0.3991,0.4046,0,0,0,0,0,0,0.3936,0.3931,0.3922,0.392,0.3917,0.3905,0.3911,0.3912,0.3918,0.392,0.3929,0.3931,0.3936,0.3949,0.395,0.3986,0.3948,0.3987,0.3989,0.399,0.4043,0.4049,0.4055,0,0,0,0,0,0.3937,0.3907,0.3921,0.3918,0.3903,0.3905,0.3905,0.3913,0.3917,0.3919,0.393,0.3932,0.3962,0.3949,0.395,0.3987,0.3986,0.3988,0.399,0.404,0.4048,0.4055,0,0,0,0,0,0,0.3904,0.3906,0.3921,0.389,0.3907,0.3908,0.3901,0.3914,0.3922,0.3924,0.3934,0.3937,0.397,0.3961,0.3947,0.4005,0.3978,0.3981,0.4016,0.4024,0.4029,0.4053,0.3948,0,0,0,0,0,0.3898,0.3886,0.3899,0.3878,0.3883,0.3897,0.3898,0.3911,0.3918,0.3922,0.3932,0.3948,0.3977,0.3985,0.4,0.4016,0.4032,0.4044,0.405,0.4055,0.4075,0.4135,0.4149,0.3999,0.3999,0.3999,0,0,0.3878,0.388,0.3872,0.3874,0.3881,0.3903,0.3899,0.3901,0.3936,0.3923,0.3956,0.3966,0.3986,0.402,0.4034,0.4018,0.41,0.4058,0.4062,0.408,0.4139,0.4154,0.4167,0.4,0.4,0.4,0,0,0.3848,0.3837,0.3833,0.3852,0.3875,0.3892,0.3898,0.3913,0.3934,0.3959,0.3979,0.4012,0.4023,0.4066,0.4085,0.4128,0.4132,0.4127,0.4175,0.4233,0.4246,0.4258,0.4276,0.4289,0.4127,0.4127,0.4127,0,0.3835,0.3828,0.3832,0.3849,0.3871,0.3894,0.3917,0.3943,0.3966,0.3998,0.3975,0.4047,0.4057,0.414,0.4159,0.4147,0.4162,0.4147,0.4243,0.4255,0.4267,0.4282,0.4296,0.413,0.413,0.4129,0.4129,0,0.3815,0.3826,0.382,0.3863,0.3889,0.39,0.3953,0.3982,0.4004,0.4042,0.4111,0.4124,0.4174,0.4183,0.4183,0.4279,0.4256,0.4247,0.4228,0.4286,0.4297,0.4311,0.4134,0.4133,0.4132,0.4132,0,0,0.3753,0.3801,0.3804,0.3835,0.3899,0.3912,0.3983,0.4054,0.4109,0.4138,0.421,0.4264,0.4278,0.4302,0.4314,0.436,0.4441,0.4338,0.4339,0.4361,0.4546,0.4514,0.4525,0.445,0.4453,0.4456,0.4514,0,0.3747,0.3775,0.3813,0.3862,0.3884,0.395,0.4015,0.4091,0.4152,0.4224,0.4277,0.434,0.4325,0.4348,0.4401,0.4444,0.4483,0.4425,0.4483,0.4485,0.4456,0.4543,0.4403,0.4443,0.4528,0.453,0.4531,0,0.3721,0.3748,0.379,0.3872,0.3888,0.3934,0.4045,0.4112,0.4241,0.4291,0.4379,0.4416,0.4515,0.447,0.4587,0.455,0.4558,0.4571,0.4573,0.454,0.4481,0.4404,0.4464,0.4373,0.4552,0.455,0.4549,0,0.3666,0.3731,0.3763,0.379,0.3889,0.3933,0.3998,0.4129,0.4201,0.4346,0.4395,0.4519,0.4574,0.4628,0.4671,0.4634,0.4777,0.4724,0.4698,0.4693,0.4586,0.4568,0.4574,0.4798,0.4798,0.4798,0.4798,0,0.3635,0.3659,0.3737,0.3754,0.381,0.3899,0.3988,0.4079,0.4219,0.4313,0.4423,0.451,0.4619,0.4705,0.4718,0.4773,0.4822,0.4737,0.4729,0.4597,0.458,0.4503,0.446,0.48,0.4799,0.4799,0.4799,0,0.3567,0.3617,0.3657,0.3751,0.3784,0.3825,0.3964,0.4022,0.4171,0.4296,0.434,0.4532,0.466,0.4742,0.4851,0.4832,0.4755,0.4872,0.4697,0.4669,0.453,0.4494,0.4332,0.4196,0.4845,0.4844,0.4844,0,0.3528,0.3543,0.3632,0.365,0.3691,0.377,0.3819,0.3982,0.4059,0.4302,0.4345,0.4532,0.4649,0.4812,0.4849,0.489,0.4743,0.4751,0.4661,0.4538,0.4492,0.4298,0.418,0.4522,0.4519,0.4517,0.4515,0,0.3461,0.3498,0.3531,0.3568,0.361,0.366,0.3751,0.3805,0.4003,0.4109,0.428,0.4404,0.4625,0.4661,0.4756,0.4755,0.4541,0.4705,0.4633,0.4304,0.4038,0.3897,0.4444,0.4495,0.4497,0.4498,0.45,0.45,0.3403,0.3403,0.3442,0.3465,0.3501,0.3514,0.3513,0.3619,0.3713,0.3841,0.4096,0.4219,0.4428,0.4565,0.4537,0.4449,0.4407,0.4333,0.4316,0.4143,0.396,0.4459,0.4472,0.4474,0.4476,0.4477,0.4478,0,0.3296,0.3305,0.3327,0.3331,0.33,0.3375,0.3423,0.3393,0.3417,0.3621,0.375,0.3977,0.4045,0.417,0.4233,0.4109,0.3869,0.3999,0.3698,0.3614,0.4124,0.4062,0.392,0.392,0.392,0.392,0.392,0.392,0.3238,0.32,0.3204,0.3114,0.3114,0.3024,0.3011,0.3005,0.3097,0.3196,0.3336,0.3534,0.3895,0.4049,0.3977,0.3862,0.3553,0.3403,0.3369,0.3767,0.3796,0.3823,0.3755,0.3551,0.3551,0.2694,0.2688,0.2683]},{"header":{"parameterUnit":"m.s-1","parameterCategory":2,"la1":30.2991,"la2":30.254,"lo1":-89.0895,"lo2":-89.0444,"dx":0.0017,"dy":0.0017,"nx":28,"ny":28,"refTime":"2023-01-21T15:00:00:Z","depth":"0","parameterNumber":3,"parameterNumberName":"V-component_of_CURRENTS"},"data":[0,0,0,0,0,0,0,0,0,0,0,0,0,0,0,0,0,0,0,0,0,0,0,0,0,0,0,0,0,0,0,0,0,0,0,0,0,0,0,0,0,0,0,0,0,0,0,0,0,0,0,0,0,0,0,0,0,0,-0.0086,-0.0087,0,-0.0163,-0.0164,-0.0165,-0.0235,-0.0236,-0.0236,-0.0237,-0.0345,-0.0347,-0.035,0,0,0,0,0,0,0,0,0,0,0,0,0,-0.0088,-0.0087,-0.0086,-0.0087,-0.0088,-0.0162,-0.0164,-0.0165,-0.0235,-0.0236,-0.0236,-0.0237,-0.0344,-0.0347,-0.035,0,0,0,0,0,0,0,0,0,0,0,0,0,-0.0121,-0.0087,-0.0086,-0.0129,-0.0134,-0.0162,-0.0164,-0.0166,-0.0235,-0.0236,-0.0237,-0.0237,-0.0343,-0.0347,-0.035,-0.0355,0,0,-0.0361,-0.0363,0,0,0,0,0,0,0,0,-0.0119,-0.0121,-0.0122,-0.0126,-0.0131,-0.0187,-0.0204,-0.023,-0.0235,-0.02,-0.0237,-0.0238,-0.0293,-0.03,-0.0317,-0.036,-0.0365,-0.0362,-0.0364,-0.0365,-0.0366,0,0,0,0,0,0,0,-0.0116,-0.0119,-0.012,-0.0123,-0.0128,-0.0174,-0.0179,-0.021,-0.0244,-0.0203,-0.0207,-0.0211,-0.0296,-0.0313,-0.032,-0.0367,-0.0361,-0.0365,-0.0367,-0.0368,-0.0423,-0.0422,0,0,0,0,0,0,-0.0095,-0.0116,-0.0117,-0.0122,-0.0123,-0.0173,-0.0179,-0.0171,-0.0243,-0.0253,-0.021,-0.0213,-0.0307,-0.0316,-0.0324,-0.032,-0.0365,-0.0368,-0.0371,-0.0423,-0.0422,-0.0422,0,0,0,0,0,0,-0.0094,-0.0094,-0.0114,-0.0119,-0.0124,-0.0171,-0.0162,-0.0172,-0.0185,-0.0247,-0.0259,-0.0212,-0.0308,-0.0319,-0.0342,-0.0325,-0.037,-0.0373,-0.0424,-0.0423,-0.0422,-0.032,0,0,0,0,0,0,-0.0094,-0.0093,-0.0079,-0.0117,-0.0123,-0.0119,-0.0162,-0.0173,-0.0185,-0.019,-0.0253,-0.0264,-0.0309,-0.0336,-0.0345,-0.0331,-0.0376,-0.0425,-0.0424,-0.0422,-0.0324,-0.0316,-0.0308,0,0,0,0,0,-0.0093,-0.0063,-0.0077,-0.0078,-0.0102,-0.0118,-0.0125,-0.0165,-0.0184,-0.0181,-0.0223,-0.0262,-0.0335,-0.0338,-0.0349,-0.0335,-0.0426,-0.0424,-0.0423,-0.0328,-0.0317,-0.0309,0,0,0,0,0,0,-0.0054,-0.0068,-0.0085,-0.006,-0.0083,-0.0128,-0.0126,-0.0153,-0.0185,-0.0189,-0.0251,-0.0265,-0.0283,-0.032,-0.0322,-0.0348,-0.0387,-0.0388,-0.0312,-0.0302,-0.0295,-0.0269,-0.0379,0,0,0,0,0,-0.0037,-0.002,-0.0049,-0.003,-0.0036,-0.008,-0.009,-0.0115,-0.0148,-0.0163,-0.0207,-0.0251,-0.0285,-0.0301,-0.0341,-0.0347,-0.0385,-0.0347,-0.0339,-0.0332,-0.0319,-0.0359,-0.0353,-0.0417,-0.0417,-0.0417,0,0,-0.0017,-0.0022,-0.0013,-0.0021,-0.0043,-0.0039,-0.0088,-0.0094,-0.009,-0.0169,-0.0176,-0.0226,-0.0282,-0.0297,-0.0307,-0.0324,-0.0333,-0.033,-0.0323,-0.0314,-0.0357,-0.035,-0.0345,-0.0416,-0.0416,-0.0416,0,0,0.0031,0.0029,0.0054,0.0042,0.0023,-0.0001,0.0004,-0.0034,-0.0051,-0.0066,-0.0121,-0.0154,-0.0207,-0.0241,-0.0266,-0.0235,-0.0293,-0.025,-0.0183,-0.0222,-0.0217,-0.0213,-0.0247,-0.0247,-0.0241,-0.0241,-0.0241,0,0.0053,0.0086,0.0058,0.0074,0.0077,0.0024,0.0049,0.0026,-0.0015,-0.0016,-0.0055,-0.0127,-0.018,-0.019,-0.0185,-0.0216,-0.0246,-0.0213,-0.021,-0.0207,-0.0205,-0.0241,-0.0242,-0.0236,-0.0236,-0.0237,-0.0237,0,0.0114,0.0137,0.0153,0.0159,0.0157,0.0171,0.014,0.0135,0.0105,0.0078,0.0056,-0.0022,-0.0061,-0.0087,-0.0129,-0.0131,-0.0161,-0.0198,-0.023,-0.0192,-0.0233,-0.0236,-0.0228,-0.023,-0.0232,-0.0233,0,0,0.0174,0.0193,0.0199,0.0222,0.0207,0.0218,0.0228,0.0229,0.0255,0.0188,0.0206,0.0126,0.0081,0.005,-0.0011,-0.0048,-0.0066,-0.0105,-0.011,-0.013,-0.0145,-0.0152,-0.0157,-0.0101,-0.0101,-0.0101,-0.0179,0,0.023,0.0291,0.0282,0.0339,0.0369,0.0335,0.0358,0.0349,0.0328,0.0329,0.0243,0.0227,0.0136,0.0121,0.0069,-0.0027,-0.007,-0.0041,-0.0187,-0.0191,-0.0194,-0.0159,-0.0119,-0.0183,-0.0182,-0.0183,-0.0183,0,0.0296,0.0332,0.0403,0.0446,0.0457,0.0484,0.0524,0.0537,0.0517,0.05,0.0457,0.0383,0.0321,0.0232,0.0087,0.0112,-0.0004,-0.0092,-0.0098,-0.0139,-0.0203,-0.0224,-0.019,-0.0418,-0.0189,-0.0188,-0.0188,0,0.0365,0.0419,0.0487,0.0499,0.0535,0.057,0.059,0.0596,0.0634,0.0612,0.0626,0.0525,0.049,0.0331,0.0142,0.0117,-0.002,-0.0083,-0.0201,-0.0204,-0.0216,-0.0219,-0.041,-0.0189,-0.0189,-0.0189,-0.0189,0,0.0436,0.0489,0.0531,0.057,0.0667,0.0657,0.0754,0.0757,0.0782,0.0854,0.0725,0.0752,0.0514,0.0399,0.02,0.0008,0.002,-0.0176,-0.0218,-0.0179,-0.0178,-0.0415,-0.0538,-0.0192,-0.0191,-0.0191,-0.019,0,0.0502,0.0524,0.061,0.0673,0.0705,0.0777,0.0868,0.0934,0.0939,0.1026,0.1023,0.0932,0.0792,0.054,0.0299,0.0109,-0.0214,-0.0175,-0.0109,-0.0142,-0.0468,-0.0584,-0.0811,-0.0895,-0.0315,-0.0316,-0.0316,0,0.0541,0.0594,0.0697,0.0763,0.0801,0.0903,0.0979,0.1016,0.1098,0.1154,0.1208,0.1098,0.106,0.0695,0.0338,-0.0002,-0.0223,-0.0198,-0.0248,-0.0467,-0.0629,-0.0727,-0.0787,-0.023,-0.023,-0.023,-0.023,0,0.0621,0.0659,0.0733,0.0868,0.0967,0.1084,0.1198,0.1288,0.1353,0.1433,0.1523,0.1497,0.1157,0.0838,0.0363,0.0126,-0.0337,-0.0203,-0.045,-0.0586,-0.0685,-0.0789,-0.0206,-0.0228,-0.0228,-0.0228,-0.0228,-0.0228,0.0686,0.0755,0.0855,0.0985,0.1102,0.1255,0.1365,0.1502,0.1662,0.1796,0.1767,0.1783,0.131,0.0675,0.0304,-0.0333,-0.0357,-0.0532,-0.0656,-0.0737,-0.0814,-0.0219,-0.0277,-0.0277,-0.0278,-0.0278,-0.0278,0,0.0766,0.0842,0.0963,0.1118,0.1253,0.1304,0.1504,0.1629,0.1842,0.1977,0.2057,0.1879,0.1273,0.0655,-0.0213,-0.07,-0.0868,-0.0964,-0.1109,-0.115,-0.0636,-0.0629,-0.074,-0.0739,-0.0739,-0.0739,-0.0739,-0.0739,0.0811,0.0934,0.0993,0.122,0.1332,0.152,0.1641,0.1842,0.1995,0.2183,0.2232,0.2228,0.1791,0.0187,-0.0923,-0.1176,-0.1505,-0.1584,-0.1768,-0.1444,-0.1414,-0.1385,-0.1409,-0.1682,-0.1683,-0.2205,-0.2211,-0.2215]}],[{"header":{"parameterUnit":"m.s-1","parameterCategory":2,"la1":30.2991,"la2":30.254,"lo1":-89.0895,"lo2":-89.0444,"dx":0.0017,"dy":0.0017,"nx":28,"ny":28,"refTime":"2023-01-21T15:00:00:Z","depth":"2","parameterNumber":2,"parameterNumberName":"U-component_of_CURRENTS"},"data":[0,0,0,0,0,0,0,0,0,0,0,0,0,0,0,0,0,0,0,0,0,0,0,0,0,0,0,0,0,0,0,0,0,0,0,0,0,0,0,0,0,0,0,0,0,0,0,0,0,0,0,0,0,0,0,0,0,0,0.3487,0.3488,0,0.3534,0.3534,0.3534,0.3555,0.3555,0.3555,0.3556,0.3578,0.3579,0.3579,0,0,0,0,0,0,0,0,0,0,0,0,0,0.341,0.3411,0.3487,0.3488,0.3489,0.3534,0.3534,0.3534,0.3555,0.3555,0.3555,0.3556,0.3578,0.3579,0.3579,0,0,0,0,0,0,0,0,0,0,0,0,0,0.3445,0.3412,0.3487,0.3507,0.351,0.3534,0.3534,0.3534,0.3555,0.3555,0.3555,0.3556,0.3578,0.3579,0.3579,0.3574,0,0,0.3581,0.3581,0,0,0,0,0,0,0,0,0.3443,0.3448,0.3503,0.3506,0.3509,0.3542,0.3516,0.3548,0.3555,0.3534,0.3556,0.3556,0.3566,0.3568,0.3571,0.3575,0.3576,0.3581,0.3581,0.3581,0.3581,0,0,0,0,0,0,0,0.3441,0.3446,0.3502,0.3504,0.3507,0.3512,0.3517,0.3522,0.3544,0.3535,0.3538,0.3549,0.3567,0.357,0.3571,0.3577,0.3581,0.3581,0.3582,0.3582,0.3648,0.365,0,0,0,0,0,0,0.3443,0.3444,0.35,0.3503,0.348,0.3514,0.3519,0.3528,0.3544,0.3548,0.3549,0.355,0.3569,0.3571,0.3572,0.3631,0.3581,0.3582,0.3582,0.3647,0.3649,0.365,0,0,0,0,0,0,0.3441,0.3447,0.3498,0.3478,0.3485,0.3515,0.3524,0.3529,0.3549,0.3555,0.3558,0.3566,0.3569,0.3571,0.3593,0.363,0.3582,0.3583,0.3645,0.3647,0.3649,0.3708,0,0,0,0,0,0,0.3438,0.3446,0.3456,0.3478,0.3486,0.3522,0.3524,0.3529,0.3555,0.3558,0.3571,0.3573,0.357,0.3593,0.3594,0.363,0.3583,0.3643,0.3646,0.3649,0.3705,0.3712,0.3719,0,0,0,0,0,0.3435,0.3444,0.3456,0.3464,0.3498,0.3523,0.3528,0.3547,0.3556,0.3566,0.358,0.3573,0.3611,0.3594,0.3595,0.3632,0.3642,0.3645,0.3648,0.3701,0.3711,0.3719,0,0,0,0,0,0,0.3407,0.3448,0.3462,0.3481,0.3507,0.3528,0.3542,0.3557,0.3575,0.3581,0.3584,0.3586,0.3624,0.3616,0.3597,0.366,0.3629,0.3632,0.3669,0.3677,0.3684,0.3703,0.3583,0,0,0,0,0,0.3409,0.3433,0.3465,0.3482,0.3497,0.3523,0.3538,0.3554,0.3573,0.3582,0.3592,0.3609,0.3636,0.3646,0.366,0.3685,0.3697,0.3713,0.372,0.3726,0.3743,0.3795,0.3809,0.3661,0.3661,0.3661,0,0,0.3403,0.3429,0.3443,0.348,0.35,0.3529,0.3532,0.356,0.3593,0.3581,0.3621,0.3633,0.3649,0.3686,0.3702,0.3684,0.3772,0.373,0.3735,0.3749,0.38,0.3815,0.3828,0.3663,0.3663,0.3662,0,0,0.3403,0.3428,0.345,0.3476,0.3518,0.3538,0.3552,0.3583,0.3607,0.364,0.3654,0.369,0.3709,0.374,0.3757,0.381,0.381,0.3814,0.3864,0.3915,0.3928,0.394,0.3964,0.3977,0.3816,0.3816,0.3816,0,0.3398,0.3427,0.3458,0.3487,0.3514,0.3547,0.3575,0.3607,0.3643,0.3675,0.366,0.3734,0.3742,0.3815,0.3838,0.3829,0.3848,0.3829,0.3926,0.3937,0.3948,0.397,0.3984,0.3819,0.3819,0.3818,0.3818,0,0.3413,0.3443,0.3457,0.3512,0.3544,0.3571,0.3624,0.3661,0.369,0.3726,0.3797,0.3811,0.3861,0.3871,0.3871,0.3961,0.3946,0.393,0.3904,0.3967,0.3986,0.3999,0.3824,0.3823,0.3822,0.3821,0,0,0.3384,0.3455,0.3461,0.3489,0.356,0.3582,0.3654,0.3724,0.3781,0.3819,0.3889,0.3943,0.3963,0.3985,0.3996,0.4038,0.4123,0.4022,0.4023,0.4047,0.4227,0.4178,0.4187,0.4128,0.4131,0.4133,0.4205,0,0.3386,0.3433,0.3478,0.353,0.3557,0.3623,0.3685,0.3759,0.3822,0.3898,0.3951,0.4016,0.4006,0.4035,0.4084,0.4122,0.4164,0.4105,0.4162,0.4164,0.4115,0.4204,0.3875,0.391,0.4218,0.422,0.4222,0,0.3385,0.3418,0.3465,0.3542,0.3562,0.3608,0.3718,0.3782,0.391,0.3963,0.4052,0.4091,0.4187,0.415,0.426,0.4226,0.424,0.4251,0.4254,0.4201,0.4142,0.39,0.3922,0.4244,0.4242,0.4241,0.4239,0,0.3335,0.3408,0.3443,0.3469,0.3565,0.3612,0.3676,0.3804,0.3874,0.4021,0.4075,0.4191,0.4252,0.4303,0.4346,0.4313,0.4446,0.4396,0.4361,0.4356,0.4085,0.4053,0.4469,0.4469,0.4469,0.4468,0.4468,0,0.331,0.3338,0.3425,0.3441,0.3502,0.3587,0.3677,0.3769,0.3906,0.3996,0.4107,0.4189,0.4296,0.4377,0.4392,0.4437,0.449,0.4399,0.4389,0.4095,0.4064,0.4356,0.4342,0.4471,0.447,0.447,0.4469,0,0.3248,0.3303,0.3348,0.3445,0.3479,0.3528,0.3665,0.3724,0.3872,0.3994,0.4042,0.4221,0.434,0.4417,0.4518,0.4494,0.4532,0.4524,0.4169,0.4118,0.4388,0.4376,0.4492,0.4491,0.449,0.449,0.4489,0,0.3217,0.3234,0.3333,0.3356,0.3401,0.3487,0.3536,0.3695,0.3768,0.4001,0.4042,0.422,0.4319,0.4461,0.4467,0.4498,0.4548,0.4191,0.4074,0.442,0.4399,0.4388,0.4377,0.3722,0.3716,0.371,0.3706,0,0.3154,0.3199,0.3234,0.3284,0.3334,0.3386,0.3479,0.3528,0.3717,0.3819,0.3971,0.4078,0.4256,0.4173,0.4248,0.421,0.4164,0.4083,0.4547,0.3785,0.3706,0.3682,0.3694,0.3657,0.3662,0.3666,0.3668,0.367,0.3106,0.3113,0.316,0.3195,0.3238,0.3253,0.3254,0.335,0.3436,0.3548,0.3769,0.3812,0.3909,0.3868,0.3769,0.3696,0.3981,0.3778,0.379,0.3808,0.3725,0.3651,0.3574,0.3578,0.3582,0.3585,0.3588,0,0.3015,0.303,0.3057,0.3075,0.3051,0.3132,0.3174,0.3134,0.315,0.3302,0.3402,0.3209,0.3195,0.3271,0.3112,0.3142,0.3051,0.2988,0.2827,0.2883,0.293,0.2794,0.24,0.2395,0.2391,0.2387,0,0,0.2966,0.2938,0.2943,0.287,0.2882,0.2805,0.2793,0.2763,0.2809,0.2782,0.2793,0.305,0.3201,0.2745,0.2713,0.2522,0.2658,0.2419,0.3389,0.3256,0.3297,0.3428,0.3289,0,0,0,0,0]},{"header":{"parameterUnit":"m.s-1","parameterCategory":2,"la1":30.2991,"la2":30.254,"lo1":-89.0895,"lo2":-89.0444,"dx":0.0017,"dy":0.0017,"nx":28,"ny":28,"refTime":"2023-01-21T15:00:00:Z","depth":"2","parameterNumber":3,"parameterNumberName":"V-component_of_CURRENTS"},"data":[0,0,0,0,0,0,0,0,0,0,0,0,0,0,0,0,0,0,0,0,0,0,0,0,0,0,0,0,0,0,0,0,0,0,0,0,0,0,0,0,0,0,0,0,0,0,0,0,0,0,0,0,0,0,0,0,0,0,0.0121,0.012,0,0.0032,0.0031,0.003,-0.0027,-0.0027,-0.0027,-0.0028,-0.0115,-0.0117,-0.0119,0,0,0,0,0,0,0,0,0,0,0,0,0,0.0176,0.0176,0.0121,0.012,0.0118,0.0032,0.0031,0.003,-0.0027,-0.0027,-0.0027,-0.0028,-0.0114,-0.0117,-0.0119,0,0,0,0,0,0,0,0,0,0,0,0,0,0.0126,0.0175,0.0121,0.008,0.0076,0.0033,0.0031,0.003,-0.0027,-0.0027,-0.0028,-0.0028,-0.0114,-0.0117,-0.012,-0.0129,0,0,-0.0129,-0.013,0,0,0,0,0,0,0,0,0.0129,0.0124,0.0087,0.0083,0.0078,0.0014,0.0019,-0.0023,-0.0026,0.0012,-0.0028,-0.0028,-0.0071,-0.0078,-0.0094,-0.0133,-0.0136,-0.0129,-0.0131,-0.0132,-0.0133,0,0,0,0,0,0,0,0.0133,0.0127,0.0085,0.0086,0.008,0.0044,0.0037,0.001,-0.0026,0.0008,0.0004,-0.0005,-0.0074,-0.0091,-0.0096,-0.0138,-0.0129,-0.0132,-0.0134,-0.0135,-0.0185,-0.0185,0,0,0,0,0,0,0.0148,0.0131,0.0088,0.0083,0.0103,0.0044,0.0036,0.0034,-0.0026,-0.0036,-0.0004,-0.0007,-0.0085,-0.0093,-0.01,-0.0094,-0.0132,-0.0135,-0.0137,-0.0186,-0.0185,-0.0184,0,0,0,0,0,0,0.015,0.0146,0.0092,0.0104,0.0095,0.0044,0.0042,0.0033,0.0018,-0.0036,-0.0046,-0.0009,-0.0086,-0.0095,-0.0117,-0.0099,-0.0136,-0.0139,-0.0186,-0.0185,-0.0185,-0.0096,0,0,0,0,0,0,0.0152,0.0147,0.0151,0.0106,0.0095,0.0078,0.0042,0.0032,0.0013,0.0009,-0.0043,-0.0052,-0.0087,-0.0112,-0.012,-0.0104,-0.0142,-0.0187,-0.0186,-0.0185,-0.01,-0.0093,-0.0086,0,0,0,0,0,0.0154,0.0164,0.0152,0.0147,0.0103,0.0078,0.007,0.003,0.0014,0.0014,-0.0022,-0.005,-0.0112,-0.0114,-0.0123,-0.0108,-0.0187,-0.0186,-0.0185,-0.0103,-0.0094,-0.0087,0,0,0,0,0,0,0.019,0.0158,0.0144,0.0144,0.0118,0.0069,0.0063,0.0039,0.0009,0.0005,-0.0045,-0.0056,-0.0071,-0.0101,-0.0102,-0.0121,-0.0154,-0.0155,-0.0088,-0.0081,-0.0074,-0.0052,-0.0144,0,0,0,0,0,0.0201,0.0201,0.0165,0.0165,0.0156,0.0112,0.0097,0.0073,0.004,0.0026,-0.0011,-0.0047,-0.0074,-0.0086,-0.0119,-0.0125,-0.0162,-0.0122,-0.0115,-0.0109,-0.0098,-0.014,-0.0136,-0.0181,-0.0181,-0.0181,0,0,0.0214,0.0197,0.0196,0.0173,0.0149,0.015,0.0102,0.0087,0.0091,0.0022,0.0016,-0.0028,-0.0073,-0.0083,-0.0091,-0.0104,-0.0116,-0.0108,-0.0102,-0.0094,-0.0139,-0.0134,-0.013,-0.018,-0.018,-0.018,0,0,0.0245,0.0228,0.024,0.0226,0.0199,0.0177,0.0178,0.0137,0.0122,0.0106,0.006,0.003,-0.0013,-0.0039,-0.0057,-0.0033,-0.0084,-0.0043,0.0016,-0.0025,-0.0022,-0.0019,-0.006,-0.0061,-0.0034,-0.0033,-0.0033,0,0.0261,0.0276,0.024,0.0249,0.0249,0.0198,0.0218,0.0195,0.0152,0.0151,0.0116,0.0054,0.001,0.0006,0.0011,-0.0017,-0.0048,-0.0008,-0.0016,-0.0014,-0.0013,-0.0055,-0.0058,-0.0029,-0.003,-0.003,-0.003,0,0.0302,0.0314,0.0322,0.0323,0.0317,0.0324,0.0296,0.0289,0.0261,0.0236,0.0215,0.0146,0.0113,0.0092,0.0057,0.0053,0.0025,-0.0006,-0.0032,-0.0002,-0.0049,-0.0054,-0.0023,-0.0024,-0.0026,-0.0027,0,0,0.0341,0.035,0.0355,0.0379,0.0361,0.0367,0.0377,0.0377,0.04,0.0336,0.035,0.0283,0.0239,0.0214,0.0162,0.0125,0.0096,0.0073,0.0069,0.0041,0.0008,-0.001,-0.0018,0.0066,0.0066,0.0065,-0.0028,0,0.0388,0.0436,0.0424,0.0477,0.0504,0.0473,0.0496,0.0487,0.0466,0.0463,0.0385,0.0371,0.029,0.0277,0.0225,0.0133,0.0088,0.0124,-0.0023,-0.0028,-0.0041,-0.0022,0.0016,-0.0064,-0.0033,-0.0033,-0.0034,0,0.0438,0.0468,0.0531,0.0575,0.0585,0.061,0.0647,0.0659,0.0637,0.0619,0.0577,0.0509,0.0447,0.0368,0.0223,0.0251,0.014,0.0056,0.005,0.0002,-0.0054,-0.009,-0.0074,-0.0043,-0.0042,-0.0041,-0.0041,0,0.0498,0.0546,0.0608,0.062,0.0655,0.0688,0.0708,0.0712,0.0746,0.0721,0.073,0.0631,0.0594,0.0442,0.0259,0.0243,0.0092,0.0044,-0.008,-0.0083,-0.0096,-0.01,-0.0064,-0.0064,-0.0064,-0.0064,-0.0063,0,0.0559,0.0607,0.0648,0.0682,0.0774,0.0767,0.0855,0.0858,0.0877,0.0937,0.0819,0.0835,0.061,0.0491,0.0305,0.0108,0.0122,-0.0063,-0.0105,-0.0065,-0.0064,-0.0083,-0.0084,-0.0067,-0.0066,-0.0066,-0.0065,0,0.0617,0.0636,0.0715,0.0776,0.0806,0.0874,0.0959,0.1017,0.102,0.1091,0.1087,0.0991,0.0842,0.0603,0.0365,0.0187,-0.0013,-0.0092,-0.0029,-0.0061,-0.0177,-0.0173,-0.0239,-0.024,-0.0241,-0.0242,-0.0243,0,0.0649,0.0697,0.0793,0.0854,0.0889,0.0985,0.1055,0.1091,0.1163,0.12,0.1243,0.1122,0.1063,0.0698,0.0363,0.0036,-0.0012,-0.0146,-0.0178,-0.0159,-0.0193,-0.0187,-0.0181,-0.0167,-0.0167,-0.0167,-0.0167,0,0.0719,0.0752,0.0821,0.0945,0.1035,0.1146,0.125,0.1328,0.1385,0.1446,0.1505,0.146,0.1118,0.08,0.0346,0.0129,-0.0093,-0.0158,-0.0151,-0.0122,-0.0098,-0.0129,-0.0124,-0.0168,-0.0168,-0.0168,-0.0168,-0.0168,0.0773,0.0836,0.0926,0.1047,0.1155,0.1294,0.1395,0.1511,0.1646,0.1739,0.1696,0.1635,0.1271,0.0695,0.0301,-0.0114,-0.0092,-0.0236,-0.0233,-0.0231,-0.02,-0.0178,-0.0257,-0.0258,-0.0258,-0.0258,-0.0259,0,0.084,0.0909,0.1018,0.1162,0.1284,0.1336,0.1515,0.1618,0.179,0.1862,0.1902,0.1559,0.1195,0.076,0.0146,-0.0212,-0.024,-0.0324,-0.028,-0.0275,-0.0272,-0.0242,-0.0313,-0.0314,-0.0315,-0.0317,0,0,0.0877,0.0986,0.104,0.1244,0.1348,0.1521,0.163,0.1786,0.1883,0.1958,0.1922,0.1839,0.1327,0.0874,0.0386,0.0028,-0.0042,-0.0039,0.0049,0.0165,0.0172,-0.0171,-0.0113,0,0,0,0,0]}],[{"header":{"parameterUnit":"m.s-1","parameterCategory":2,"la1":30.2991,"la2":30.254,"lo1":-89.0895,"lo2":-89.0444,"dx":0.0017,"dy":0.0017,"nx":28,"ny":28,"refTime":"2023-01-21T15:00:00:Z","depth":"4","parameterNumber":2,"parameterNumberName":"U-component_of_CURRENTS"},"data":[0,0,0,0,0,0,0,0,0,0,0,0,0,0,0,0,0,0,0,0,0,0,0,0,0,0,0,0,0,0,0,0,0,0,0,0,0,0,0,0,0,0,0,0,0,0,0,0,0,0,0,0,0,0,0,0,0,0,0.2245,0.2247,0,0.2354,0.2355,0.2356,0.2432,0.2433,0.2434,0.2435,0.2522,0.2524,0.2525,0,0,0,0,0,0,0,0,0,0,0,0,0,0.2085,0.2088,0.2245,0.2247,0.2248,0.2353,0.2355,0.2356,0.2432,0.2433,0.2434,0.2435,0.2522,0.2523,0.2525,0,0,0,0,0,0,0,0,0,0,0,0,0,0.2167,0.2089,0.2245,0.2301,0.2308,0.2353,0.2355,0.2356,0.2432,0.2433,0.2435,0.2436,0.2521,0.2523,0.2525,0.2512,0,0,0.2532,0.2533,0,0,0,0,0,0,0,0,0.2163,0.2173,0.2292,0.2298,0.2305,0.2384,0.2331,0.2408,0.2432,0.2381,0.2435,0.2436,0.2475,0.2481,0.2494,0.2517,0.252,0.2532,0.2534,0.2535,0.2535,0,0,0,0,0,0,0,0.2157,0.2169,0.2285,0.2293,0.2301,0.2315,0.2328,0.2345,0.2416,0.2386,0.2393,0.2409,0.2478,0.2492,0.2497,0.2522,0.2532,0.2534,0.2536,0.2537,0.2679,0.2681,0,0,0,0,0,0,0.215,0.2163,0.2282,0.2289,0.2239,0.2317,0.2332,0.2354,0.2417,0.2429,0.2408,0.2412,0.2487,0.2494,0.25,0.2609,0.2535,0.2537,0.2538,0.2676,0.2679,0.2682,0,0,0,0,0,0,0.2146,0.2159,0.2277,0.223,0.2247,0.2319,0.2344,0.2356,0.2421,0.2435,0.2446,0.2467,0.2489,0.2497,0.2563,0.2609,0.2538,0.254,0.2673,0.2677,0.268,0.275,0,0,0,0,0,0,0.2141,0.2157,0.2195,0.223,0.2249,0.2332,0.2343,0.2357,0.2428,0.2436,0.2488,0.2494,0.249,0.256,0.2565,0.261,0.2542,0.267,0.2675,0.2679,0.2744,0.2755,0.2765,0,0,0,0,0,0.2135,0.2172,0.2196,0.2212,0.2291,0.2334,0.2345,0.2397,0.243,0.2461,0.2505,0.2495,0.2593,0.2564,0.2569,0.2616,0.2668,0.2674,0.2679,0.274,0.2753,0.2764,0,0,0,0,0,0,0.2123,0.2184,0.2211,0.2268,0.2312,0.2349,0.2395,0.2426,0.2486,0.2512,0.2523,0.2532,0.2607,0.2605,0.2573,0.2673,0.263,0.2637,0.2675,0.2687,0.2697,0.2705,0.2544,0,0,0,0,0,0.2136,0.2187,0.2233,0.2285,0.2312,0.2363,0.2399,0.2433,0.2479,0.2511,0.2545,0.2587,0.2625,0.2653,0.268,0.2732,0.2735,0.2768,0.2779,0.2787,0.2799,0.2848,0.2863,0.27,0.27,0.27,0,0,0.2147,0.219,0.222,0.2287,0.2332,0.2373,0.239,0.2457,0.2503,0.2508,0.2596,0.2625,0.2648,0.2709,0.2743,0.272,0.2836,0.2794,0.2801,0.2809,0.2855,0.2871,0.2885,0.2703,0.2703,0.2702,0,0,0.2171,0.2233,0.2276,0.2317,0.2391,0.2418,0.2448,0.251,0.2557,0.263,0.2651,0.2714,0.277,0.2795,0.2813,0.2897,0.2888,0.2914,0.2972,0.3019,0.3033,0.3045,0.3067,0.308,0.2919,0.2919,0.2919,0,0.2185,0.2242,0.2295,0.2341,0.2383,0.2442,0.2487,0.2537,0.2615,0.2661,0.2672,0.2788,0.2808,0.2883,0.2919,0.292,0.294,0.292,0.3031,0.3043,0.3054,0.3074,0.3088,0.2923,0.2922,0.2922,0.2922,0,0.2222,0.2284,0.2316,0.2394,0.2444,0.2496,0.256,0.2628,0.2692,0.2739,0.2846,0.2881,0.2951,0.2969,0.2974,0.3069,0.3056,0.3036,0.2995,0.3075,0.3091,0.3104,0.2929,0.2927,0.2926,0.2925,0,0,0.2203,0.2319,0.2335,0.2378,0.2478,0.2515,0.2608,0.2694,0.2768,0.285,0.294,0.3019,0.3059,0.3083,0.3101,0.3145,0.3239,0.3138,0.3138,0.3151,0.3342,0.314,0.3134,0.3247,0.325,0.3252,0.332,0,0.2218,0.23,0.2362,0.2446,0.2489,0.2576,0.2651,0.2744,0.2833,0.2932,0.3003,0.3094,0.3095,0.3147,0.3197,0.3236,0.3279,0.3222,0.3271,0.3272,0.3076,0.3144,0.3261,0.3329,0.3332,0.3334,0.3336,0,0.2225,0.2281,0.2365,0.2472,0.2503,0.2571,0.2708,0.2785,0.2932,0.3006,0.3116,0.3172,0.328,0.3257,0.3368,0.334,0.3358,0.3369,0.3372,0.3168,0.3094,0.3236,0.3359,0.3357,0.3356,0.3354,0.3353,0,0.2162,0.2279,0.2348,0.2387,0.2518,0.2592,0.2677,0.2822,0.2903,0.3074,0.3147,0.327,0.335,0.3404,0.3452,0.343,0.3548,0.3507,0.3336,0.3322,0.3451,0.3438,0.3577,0.3577,0.3576,0.3576,0.3576,0,0.2127,0.2187,0.2337,0.2371,0.2468,0.2578,0.2701,0.2806,0.2961,0.3054,0.3193,0.3266,0.3398,0.3474,0.3492,0.3456,0.3585,0.3357,0.333,0.3478,0.3467,0.346,0.3445,0.3579,0.3578,0.3578,0.3577,0,0.2044,0.2142,0.223,0.2386,0.2444,0.2523,0.2707,0.2778,0.2948,0.3074,0.3135,0.3305,0.3398,0.3485,0.3576,0.3483,0.3479,0.3431,0.3595,0.3575,0.3208,0.3197,0.3231,0.3224,0.3219,0.3214,0.3211,0,0.2002,0.2043,0.2227,0.2283,0.2367,0.2501,0.2577,0.276,0.2833,0.3065,0.3096,0.3261,0.3349,0.3306,0.3421,0.343,0.3392,0.3358,0.3267,0.3204,0.3176,0.3174,0.317,0.3202,0.32,0.3199,0.3198,0,0.1917,0.2013,0.2085,0.2204,0.2304,0.239,0.2521,0.2553,0.2752,0.2928,0.2981,0.3027,0.3121,0.3175,0.321,0.3212,0.336,0.33,0.331,0.3224,0.3169,0.3146,0.3149,0.3179,0.3181,0.3183,0.3184,0,0.1865,0.1898,0.201,0.2095,0.2207,0.224,0.2329,0.24,0.2491,0.2732,0.275,0.2922,0.3091,0.3064,0.3102,0.3086,0.303,0.2913,0.2942,0.2964,0.2846,0.2735,0.2596,0,0,0,0,0,0.1794,0.181,0.1882,0.1957,0.2055,0.2122,0.2262,0.2349,0.2539,0.2504,0.2616,0.2689,0.2738,0.2833,0.2761,0.2992,0.3049,0.2896,0.293,0.3073,0.3095,0.2981,0,0,0,0,0,0,0.1743,0.1809,0.1831,0.1818,0.184,0.1924,0.2006,0.2136,0.2125,0.233,0.2369,0.2527,0.2616,0.275,0.271,0.2739,0.2703,0.3012,0.3005,0.3061,0.3081,0.3098,0.2988,0,0,0,0,0]},{"header":{"parameterUnit":"m.s-1","parameterCategory":2,"la1":30.2991,"la2":30.254,"lo1":-89.0895,"lo2":-89.0444,"dx":0.0017,"dy":0.0017,"nx":28,"ny":28,"refTime":"2023-01-21T15:00:00:Z","depth":"4","parameterNumber":3,"parameterNumberName":"V-component_of_CURRENTS"},"data":[0,0,0,0,0,0,0,0,0,0,0,0,0,0,0,0,0,0,0,0,0,0,0,0,0,0,0,0,0,0,0,0,0,0,0,0,0,0,0,0,0,0,0,0,0,0,0,0,0,0,0,0,0,0,0,0,0,0,0.0194,0.0194,0,0.0134,0.0133,0.0133,0.0103,0.0103,0.0103,0.0103,0.0052,0.0051,0.005,0,0,0,0,0,0,0,0,0,0,0,0,0,0.0233,0.0233,0.0194,0.0194,0.0193,0.0134,0.0133,0.0133,0.0103,0.0103,0.0103,0.0103,0.0053,0.0051,0.005,0,0,0,0,0,0,0,0,0,0,0,0,0,0.0199,0.0233,0.0195,0.0171,0.0168,0.0134,0.0133,0.0132,0.0103,0.0103,0.0103,0.0103,0.0053,0.0051,0.0049,0.0037,0,0,0.0043,0.0042,0,0,0,0,0,0,0,0,0.0201,0.0198,0.0175,0.0173,0.017,0.0126,0.0128,0.0101,0.0103,0.0128,0.0103,0.0103,0.0078,0.0074,0.0062,0.0034,0.0032,0.0043,0.0042,0.0041,0.004,0,0,0,0,0,0,0,0.0204,0.02,0.0171,0.0175,0.0171,0.0146,0.0142,0.0123,0.0104,0.0126,0.0123,0.0117,0.0076,0.0064,0.0061,0.0032,0.0043,0.0041,0.004,0.0039,0.0002,0.0002,0,0,0,0,0,0,0.0214,0.0203,0.0172,0.0169,0.0186,0.0146,0.0141,0.014,0.0104,0.0098,0.0117,0.0115,0.0068,0.0063,0.0059,0.0068,0.0041,0.0039,0.0038,0.0002,0.0002,0.0003,0,0,0,0,0,0,0.0215,0.0212,0.0175,0.0184,0.0177,0.0145,0.0145,0.0139,0.0131,0.0097,0.0091,0.0115,0.0068,0.0062,0.0049,0.0065,0.0038,0.0036,0.0002,0.0002,0.0002,0.0069,0,0,0,0,0,0,0.0216,0.0213,0.0217,0.0185,0.0177,0.0164,0.0144,0.0138,0.0127,0.0125,0.0094,0.0089,0.0067,0.0052,0.0047,0.0062,0.0035,0.0001,0.0002,0.0002,0.0067,0.0072,0.0076,0,0,0,0,0,0.0218,0.0224,0.0218,0.0214,0.0184,0.0164,0.0158,0.0135,0.0127,0.0127,0.0106,0.009,0.0051,0.005,0.0044,0.0059,0.0001,0.0002,0.0002,0.0065,0.0071,0.0076,0,0,0,0,0,0,0.0241,0.022,0.0214,0.0212,0.0195,0.016,0.0157,0.014,0.0123,0.0123,0.0092,0.0085,0.0078,0.0057,0.0057,0.0048,0.0024,0.0023,0.0073,0.0079,0.0083,0.01,0.0033,0,0,0,0,0,0.0249,0.0251,0.0225,0.0226,0.0219,0.019,0.018,0.0165,0.0143,0.0135,0.0113,0.009,0.0074,0.0068,0.0046,0.0043,0.001,0.0048,0.0052,0.0057,0.0065,0.0023,0.0024,0.0004,0.0004,0.0004,0,0,0.0259,0.0247,0.0248,0.0231,0.0216,0.0217,0.0184,0.0174,0.0179,0.0133,0.0133,0.0104,0.0075,0.007,0.0066,0.0058,0.0044,0.0057,0.0061,0.0067,0.0023,0.0025,0.0027,0.0005,0.0005,0.0004,0,0,0.0278,0.0269,0.0278,0.0269,0.0251,0.0237,0.0238,0.0209,0.0202,0.0194,0.0164,0.0143,0.0119,0.01,0.0089,0.0105,0.0066,0.0101,0.0145,0.0104,0.0106,0.0107,0.0065,0.0061,0.0109,0.0109,0.0109,0,0.0291,0.0302,0.0277,0.0284,0.0287,0.0252,0.0268,0.0253,0.0224,0.0225,0.0205,0.0164,0.0134,0.0132,0.0137,0.0117,0.0088,0.0129,0.0111,0.0111,0.0111,0.0068,0.0063,0.0112,0.0112,0.0112,0.0111,0,0.0316,0.0329,0.0334,0.0339,0.0337,0.0343,0.0325,0.0322,0.0308,0.0291,0.0279,0.023,0.0209,0.0195,0.0172,0.0164,0.0141,0.0119,0.01,0.0118,0.007,0.0064,0.0117,0.0116,0.0115,0.0114,0,0,0.0339,0.0352,0.0356,0.0378,0.037,0.0376,0.0387,0.039,0.0408,0.0366,0.0377,0.0333,0.0301,0.0285,0.0247,0.0212,0.0178,0.0175,0.0171,0.014,0.0089,0.0073,0.0065,0.0156,0.0155,0.0155,0.0056,0,0.0371,0.0408,0.0403,0.0449,0.047,0.0455,0.0476,0.0473,0.0461,0.0459,0.0402,0.0395,0.0338,0.0332,0.0286,0.0208,0.0166,0.0207,0.0071,0.0067,0.0057,0.0059,0.0153,0.0052,0.005,0.0049,0.0048,0,0.0401,0.0426,0.0478,0.0522,0.0532,0.0556,0.0592,0.0604,0.0589,0.0578,0.0547,0.0497,0.0444,0.0389,0.026,0.0291,0.0198,0.0128,0.0122,0.0082,0.0041,0.0029,0.0037,0.0038,0.0039,0.0039,0.004,0,0.0436,0.0482,0.0534,0.0546,0.0584,0.0616,0.064,0.0646,0.0673,0.0656,0.0662,0.0581,0.0547,0.0423,0.0271,0.0268,0.0119,0.0091,-0.0014,-0.0017,-0.0002,-0.0002,-0.0006,-0.0006,-0.0006,-0.0005,-0.0005,0,0.0472,0.0515,0.0563,0.0591,0.067,0.0675,0.075,0.0757,0.0774,0.0812,0.0732,0.0729,0.0555,0.0446,0.0297,0.0126,0.0133,-0.0005,-0.0041,0.0027,0.0032,-0.0007,-0.0006,-0.0009,-0.0008,-0.0008,-0.0007,0,0.0501,0.0527,0.0595,0.0659,0.069,0.0749,0.0831,0.0875,0.0885,0.0928,0.0926,0.0839,0.0698,0.0508,0.0301,0.0171,0.0002,-0.0064,0.0027,-0.0002,-0.0115,-0.0109,-0.0187,-0.0188,-0.019,-0.0191,-0.0191,0,0.0515,0.0554,0.065,0.0703,0.0741,0.0829,0.0888,0.093,0.0977,0.0996,0.1014,0.0902,0.0814,0.0517,0.031,0.0019,-0.0027,-0.0119,-0.0123,-0.0105,-0.0133,-0.0125,-0.0118,-0.0193,-0.0193,-0.0194,-0.0194,0,0.0547,0.0586,0.0644,0.0752,0.0834,0.0928,0.1015,0.1057,0.1102,0.1112,0.1086,0.0935,0.077,0.0526,0.0297,0.0089,-0.0061,-0.0132,-0.0132,-0.0136,-0.0114,-0.0138,-0.013,-0.0198,-0.0197,-0.0197,-0.0197,0,0.0573,0.062,0.0698,0.0796,0.09,0.0997,0.1042,0.1096,0.1143,0.1154,0.1144,0.0971,0.0872,0.0563,0.0357,0.0145,0.0084,0.001,0.0002,0.0004,0.0082,0.0139,0.0106,0,0,0,0,0,0.0594,0.0645,0.0731,0.0839,0.0941,0.1008,0.1111,0.1145,0.1189,0.1179,0.1165,0.1012,0.0715,0.0594,0.0378,0.0313,0.0033,0.0051,-0.006,-0.022,-0.0215,-0.0158,0,0,0,0,0,0,0.0605,0.0686,0.0728,0.0857,0.0933,0.1053,0.1125,0.1156,0.115,0.1161,0.1008,0.0947,0.0657,0.0836,0.0371,0.0309,0.0206,-0.0082,-0.0087,-0.0222,-0.0218,-0.0214,-0.0155,0,0,0,0,0]}]]